period_start,C,m1,H,J0,J1,J2,J3,J4,J5,JA,JB,JC,JD,JJ,JK,JN,#
2017-01-01 00:01:04,0.36,15.70,0.00,19.26,23.44,27.13,14.77,52.04,1018.08,2036.97,830.02,1109.33,1255.27,599.46,604.01,54.97,0000 0000 0000 0000 000000
2017-01-01 00:06:05,0.34,15.72,0.00,19.25,23.43,27.07,14.86,51.92,1018.08,2036.97,829.01,1108.37,1254.13,599.93,604.58,55.02,0000 0000 0000 0000 000000
2017-01-01 00:11:07,0.34,15.73,0.00,19.24,23.43,27.10,14.76,51.79,1018.08,2036.95,827.99,1107.44,1253.03,600.16,604.72,55.07,0000 0000 0000 0000 000000
2017-01-01 00:16:08,0.39,15.75,0.00,19.24,23.43,27.04,14.80,51.70,1018.08,2036.93,826.84,1106.51,1251.99,599.97,604.62,55.12,0000 0000 0000 0000 000000
2017-01-01 00:21:10,0.38,15.77,0.00,19.24,23.42,27.07,14.84,51.89,1018.08,2036.96,825.75,1105.58,1250.93,600.05,604.66,55.17,0000 0000 0000 0000 000000
2017-01-01 00:26:11,0.35,15.79,0.00,19.25,23.42,27.06,14.86,52.06,1018.08,2036.97,824.70,1104.68,1249.88,600.11,604.58,55.22,0000 0000 0000 0000 000000
2017-01-01 00:31:12,0.31,15.81,0.00,19.25,23.42,27.06,14.86,52.01,1018.08,2036.97,823.77,1103.77,1248.81,600.10,604.65,55.28,0000 0000 0000 0000 000000
2017-01-01 00:36:13,0.40,15.82,0.00,19.26,23.42,27.09,14.81,52.05,1018.05,2036.98,822.68,1102.78,1247.68,600.01,604.62,55.33,0000 0000 0000 0000 000000
2017-01-01 00:41:14,0.37,15.84,0.00,19.25,23.42,27.09,14.80,51.98,1018.08,2036.97,821.54,1101.84,1246.62,599.94,604.43,55.38,0000 0000 0000 0000 000000
2017-01-01 00:46:15,0.33,15.86,0.00,19.23,23.42,27.05,14.89,52.02,1017.97,2036.97,820.62,1100.88,1245.48,600.21,604.70,55.43,0000 0000 0000 0000 000000
2017-01-01 00:51:17,0.36,15.88,0.00,19.23,23.42,27.11,14.85,52.04,1017.85,2036.97,819.58,1099.95,1244.42,599.98,604.44,55.48,0000 0000 0000 0000 000000
2017-01-01 00:56:18,0.36,15.90,0.00,19.24,23.42,26.98,14.77,52.07,1017.62,2036.97,818.52,1099.03,1243.35,599.71,603.99,55.53,0000 0000 0000 0000 000000
2017-01-01 01:01:19,0.35,15.92,0.00,19.25,23.42,27.09,14.86,52.03,1017.62,2036.96,817.51,1098.09,1242.26,600.10,604.36,55.58,0000 0000 0000 0000 000000
2017-01-01 01:06:21,0.35,15.94,0.00,19.25,23.42,27.09,14.79,52.03,1017.72,2036.91,816.41,1097.12,1241.14,599.99,604.35,55.63,0000 0000 0000 0000 000000
2017-01-01 01:11:22,0.34,15.95,0.00,19.25,23.42,27.00,14.89,51.99,1017.77,2036.81,815.45,1096.22,1240.06,600.32,604.60,55.68,0000 0000 0000 0000 000000
2017-01-01 01:16:23,0.37,15.97,0.00,19.23,23.42,27.07,14.81,52.02,1017.82,2036.90,814.45,1095.32,1238.99,599.91,604.38,55.73,0000 0000 0000 0000 000000
2017-01-01 01:21:25,0.36,15.99,0.00,19.23,23.42,27.08,14.84,52.13,1017.87,2036.80,813.31,1094.36,1237.94,599.93,604.36,55.78,0000 0000 0000 0000 000000
2017-01-01 01:26:26,0.36,16.01,0.00,19.24,23.42,27.08,14.84,52.17,1017.81,2036.85,812.24,1093.43,1236.89,600.21,604.63,55.83,0000 0000 0000 0000 000000
2017-01-01 01:31:28,0.37,16.03,0.00,19.25,23.42,27.07,14.84,52.12,1017.76,2036.91,811.23,1092.50,1235.86,599.96,604.35,55.88,0000 0000 0000 0000 000000
2017-01-01 01:36:29,0.36,16.04,0.00,19.25,23.42,27.09,14.85,52.17,1017.73,2036.95,810.20,1091.63,1234.78,600.22,604.51,55.93,0000 0000 0000 0000 000000
2017-01-01 01:41:30,0.33,16.06,0.00,19.25,23.43,27.09,14.82,52.16,1017.68,2036.82,809.18,1090.71,1233.69,600.15,604.45,55.98,0000 0000 0000 0000 000000
2017-01-01 01:46:32,0.33,16.08,0.00,19.24,23.44,27.09,14.79,52.21,1017.70,2036.71,808.17,1089.75,1232.62,599.13,603.48,56.03,0000 0000 0000 0000 000000
2017-01-01 01:51:33,0.33,16.10,0.00,19.25,23.44,27.11,14.78,52.16,1017.72,2036.58,807.13,1088.86,1231.58,599.41,603.79,56.08,0000 0000 0000 0000 000000
2017-01-01 01:56:34,0.32,16.12,0.00,19.26,23.45,27.11,14.79,52.20,1017.62,2036.55,806.14,1087.93,1230.52,600.01,604.25,56.13,0000 0000 0000 0000 000000
2017-01-01 02:01:35,0.31,16.13,0.00,19.24,23.45,27.13,14.81,52.17,1017.61,2036.30,805.09,1087.05,1229.42,599.96,604.19,56.18,0000 0000 0000 0000 000000
2017-01-01 02:06:36,0.36,16.15,0.00,19.25,23.45,27.07,14.80,51.99,1017.61,2036.36,804.08,1086.27,1228.38,599.89,604.17,56.23,0000 0000 0000 0000 000000
2017-01-01 02:11:38,0.40,16.17,0.00,19.26,23.45,27.03,14.80,52.17,1017.69,2036.42,803.05,1085.34,1227.34,599.54,603.81,56.29,0000 0000 0000 0000 000000
2017-01-01 02:16:39,0.33,16.19,0.00,19.23,23.45,27.13,14.84,52.42,1017.91,2036.42,802.03,1084.44,1226.32,599.65,604.25,56.34,0000 0000 0000 0000 000000
2017-01-01 02:21:40,0.38,16.20,0.00,19.25,23.46,27.14,14.83,52.13,1017.99,2036.36,801.02,1083.54,1225.21,599.83,604.37,56.39,0000 0000 0000 0000 000000
2017-01-01 02:26:42,0.32,16.22,0.00,19.25,23.47,27.13,14.85,52.17,1017.98,2036.24,799.97,1082.59,1224.13,600.31,604.80,56.44,0000 0000 0000 0000 000000
2017-01-01 02:31:43,0.35,16.24,0.00,19.25,23.47,27.12,14.91,52.09,1017.87,2036.15,798.96,1081.66,1223.04,600.43,604.86,56.49,0000 0000 0000 0000 000000
2017-01-01 02:36:44,0.33,16.26,0.00,19.28,23.47,27.13,14.82,52.02,1018.01,2036.18,797.97,1080.78,1222.00,599.74,604.26,56.54,0000 0000 0000 0000 000000
2017-01-01 02:41:45,0.35,16.28,0.00,19.27,23.47,27.06,14.79,52.14,1018.06,2036.11,796.95,1079.86,1220.93,600.20,604.62,56.59,0000 0000 0000 0000 000000
2017-01-01 02:46:47,0.36,16.29,0.00,19.26,23.47,27.05,14.83,51.98,1018.08,2036.14,795.94,1078.96,1219.90,600.44,605.06,56.64,0000 0000 0000 0000 000000
2017-01-01 02:51:48,0.37,16.31,0.00,19.25,23.47,27.09,14.81,52.04,1018.07,2036.13,794.92,1078.05,1218.85,599.80,604.43,56.69,0000 0000 0000 0000 000000
2017-01-01 02:56:50,0.38,16.33,0.00,19.26,23.47,27.14,14.77,51.98,1018.08,2036.10,793.88,1077.11,1217.79,599.50,604.09,56.74,0000 0000 0000 0000 000000
2017-01-01 03:01:51,0.38,16.35,0.00,19.26,23.47,27.15,14.87,51.99,1018.08,2036.16,792.87,1076.18,1216.77,600.31,604.82,56.79,0000 0000 0000 0000 000000
2017-01-01 03:06:52,0.36,16.37,0.00,19.25,23.47,27.14,14.80,52.12,1018.08,2036.17,791.88,1075.27,1215.74,599.95,604.55,56.84,0000 0000 0000 0000 000000
2017-01-01 03:11:54,0.36,16.39,0.00,19.24,23.47,27.15,14.80,52.11,1018.08,2036.19,790.88,1074.38,1214.86,599.81,604.55,56.89,0000 0000 0000 0000 000000
2017-01-01 03:16:54,0.35,16.40,0.00,19.25,23.47,27.11,14.86,52.13,1018.08,2036.17,789.85,1073.51,1213.84,600.28,604.80,56.94,0000 0000 0000 0000 000000
2017-01-01 03:21:56,0.35,16.42,0.00,19.24,23.47,27.12,14.80,52.20,1018.08,2036.15,788.88,1072.61,1212.76,600.01,604.59,56.99,0000 0000 0000 0000 000000
2017-01-01 03:26:57,0.32,16.44,0.00,19.23,23.47,27.08,14.80,52.21,1018.08,2036.17,787.93,1071.74,1211.75,599.79,604.46,57.04,0000 0000 0000 0000 000000
2017-01-01 03:31:59,0.39,16.46,0.00,19.23,23.47,27.04,14.85,52.33,1018.08,2036.09,786.89,1070.81,1210.70,600.02,604.52,57.09,0000 0000 0000 0000 000000
2017-01-01 03:37:00,0.33,16.48,0.00,19.24,23.47,27.11,14.79,52.19,1018.07,2036.04,785.97,1069.87,1209.56,600.02,604.56,57.14,0000 0000 0000 0000 000000
2017-01-01 03:42:02,0.35,16.49,0.00,19.23,23.47,27.07,14.87,52.14,1018.06,2036.04,785.00,1068.99,1208.56,600.20,604.72,57.20,0000 0000 0000 0000 000000
2017-01-01 03:47:03,0.37,16.51,0.00,19.23,23.47,27.04,14.79,52.09,1018.06,2036.03,783.98,1068.08,1207.50,600.01,604.51,57.25,0000 0000 0000 0000 000000
2017-01-01 03:52:04,0.38,16.53,0.00,19.24,23.47,27.03,14.84,52.04,1018.02,2036.02,782.96,1067.18,1206.48,599.97,604.60,57.30,0000 0000 0000 0000 000000
2017-01-01 03:57:05,0.39,16.55,0.00,19.24,23.47,27.12,14.76,52.17,1017.89,2036.02,781.92,1066.23,1205.50,599.68,604.05,57.35,0000 0000 0000 0000 000000
2017-01-01 04:02:06,0.38,16.57,0.00,19.25,23.47,27.11,14.86,52.21,1017.95,2036.00,780.88,1065.34,1204.42,600.29,604.76,57.40,0000 0000 0000 0000 000000
2017-01-01 04:07:08,0.37,16.59,0.00,19.25,23.47,27.03,14.86,52.21,1018.02,2036.02,779.89,1064.44,1203.40,600.04,604.58,57.45,0000 0000 0000 0000 000000
2017-01-01 04:12:09,0.36,16.61,0.00,19.22,23.46,27.09,14.87,52.13,1017.92,2036.02,778.91,1063.58,1202.38,600.07,604.61,57.50,0000 0000 0000 0000 000000
2017-01-01 04:17:10,0.38,16.62,0.00,19.23,23.46,27.11,14.79,52.09,1017.84,2036.03,777.84,1062.70,1201.39,599.95,604.46,57.55,0000 0000 0000 0000 000000
2017-01-01 04:22:12,0.37,16.64,0.00,19.24,23.45,27.09,14.86,52.27,1017.73,2036.03,776.79,1061.78,1200.36,600.28,604.55,57.60,0000 0000 0000 0000 000000
2017-01-01 04:27:13,0.31,16.66,0.00,19.24,23.45,27.02,14.83,52.32,1017.86,2036.04,775.87,1060.90,1199.35,599.92,604.43,57.65,0000 0000 0000 0000 000000
2017-01-01 04:32:14,0.32,16.68,0.00,19.24,23.45,27.09,14.78,52.14,1018.07,2036.02,775.03,1060.01,1198.22,600.01,604.67,57.70,0000 0000 0000 0000 000000
2017-01-01 04:37:15,0.38,16.70,0.00,19.23,23.45,27.11,14.80,52.17,1018.07,2036.03,774.09,1059.11,1197.21,599.75,604.35,57.75,0000 0000 0000 0000 000000
2017-01-01 04:42:17,0.37,16.72,0.00,19.23,23.45,27.12,14.86,52.26,1018.08,2036.01,773.03,1058.23,1196.21,599.67,604.26,57.80,0000 0000 0000 0000 000000
2017-01-01 04:47:18,0.38,16.74,0.00,19.22,23.45,27.11,14.85,52.12,1018.07,2036.01,772.00,1057.38,1195.23,599.58,604.21,57.85,0000 0000 0000 0000 000000
2017-01-01 04:52:19,0.36,16.75,0.00,19.22,23.45,27.03,14.81,52.17,1018.03,2036.02,771.04,1056.51,1194.23,600.19,604.74,57.90,0000 0000 0000 0000 000000
2017-01-01 04:57:20,0.37,16.77,0.00,19.22,23.45,27.08,14.84,52.49,1017.87,2036.07,770.05,1055.65,1193.29,600.07,604.45,57.95,0000 0000 0000 0000 000000
2017-01-01 05:02:21,0.35,16.79,0.00,19.22,23.45,27.04,14.87,52.44,1017.83,2036.06,769.05,1054.76,1192.27,600.02,604.52,58.00,0000 0000 0000 0000 000000
2017-01-01 05:07:23,0.32,16.81,0.00,19.21,23.45,27.02,14.88,52.31,1017.97,2036.06,768.12,1053.90,1191.27,600.45,605.18,58.05,0000 0000 0000 0000 000000
2017-01-01 05:12:24,0.37,16.83,0.00,19.22,23.45,26.96,14.86,52.30,1017.99,2036.04,767.36,1053.01,1190.16,600.18,604.57,58.11,0000 0000 0000 0000 000000
2017-01-01 05:17:26,0.38,16.84,0.00,19.20,23.45,27.02,14.87,52.25,1017.99,2036.02,766.32,1052.11,1189.18,600.05,604.66,58.16,0000 0000 0000 0000 000000
2017-01-01 05:22:28,0.37,16.86,0.00,19.21,23.45,27.04,14.96,52.35,1017.80,2036.02,765.39,1051.22,1188.20,600.25,604.61,58.21,0000 0000 0000 0000 000000
2017-01-01 05:27:29,0.37,16.88,0.00,19.19,23.45,27.03,14.96,52.43,1017.90,2036.01,764.42,1050.39,1187.24,600.45,604.95,58.26,0000 0000 0000 0000 000000
2017-01-01 05:32:30,0.37,16.90,0.00,19.19,23.44,27.06,14.88,52.37,1017.91,2036.03,763.43,1049.57,1186.27,600.02,604.64,58.31,0000 0000 0000 0000 000000
2017-01-01 05:37:31,0.37,16.92,0.00,19.20,23.44,27.04,14.85,52.39,1017.94,2036.03,762.33,1048.66,1185.29,600.19,604.84,58.36,0000 0000 0000 0000 000000
2017-01-01 05:42:33,0.31,16.94,0.00,19.19,23.44,26.88,14.79,52.46,1017.88,2036.03,761.39,1047.84,1184.34,599.99,604.54,58.41,0000 0000 0000 0000 000000
2017-01-01 05:47:34,0.35,16.95,0.00,19.17,23.44,27.04,14.86,52.42,1017.85,2036.04,760.59,1046.98,1183.21,599.92,604.44,58.46,0000 0000 0000 0000 000000
2017-01-01 05:52:35,0.38,16.97,0.00,19.17,23.44,27.05,14.83,52.38,1017.97,2036.03,759.60,1046.09,1182.21,599.95,604.57,58.51,0000 0000 0000 0000 000000
2017-01-01 05:57:36,0.35,16.99,0.00,19.18,23.43,26.91,14.86,52.38,1018.01,2036.03,758.69,1045.18,1181.13,600.23,604.87,58.56,0000 0000 0000 0000 000000
2017-01-01 06:02:38,0.39,17.01,0.00,19.17,23.43,26.85,14.84,52.23,1017.90,2036.04,757.71,1044.30,1180.14,599.85,604.42,58.61,0000 0000 0000 0000 000000
2017-01-01 06:07:39,0.37,17.03,0.00,19.17,23.42,26.94,14.87,52.37,1017.96,2036.03,756.71,1043.47,1179.17,599.95,604.56,58.66,0000 0000 0000 0000 000000
2017-01-01 06:12:40,0.39,17.05,0.00,19.17,23.42,26.87,14.84,52.35,1017.87,2036.02,755.66,1042.60,1178.15,599.82,604.47,58.71,0000 0000 0000 0000 000000
2017-01-01 06:17:42,0.38,17.07,0.00,19.15,23.42,26.98,14.90,52.43,1017.93,2036.04,754.61,1041.70,1177.16,600.07,604.74,58.76,0000 0000 0000 0000 000000
2017-01-01 06:22:43,0.34,17.09,0.00,19.15,23.42,27.01,14.87,52.31,1017.89,2036.04,753.62,1040.86,1176.19,600.46,605.08,58.81,0000 0000 0000 0000 000000
2017-01-01 06:27:44,0.34,17.11,0.00,19.13,23.41,27.02,14.82,52.46,1017.77,2036.05,752.74,1039.95,1175.14,599.59,604.17,58.86,0000 0000 0000 0000 000000
2017-01-01 06:32:45,0.37,17.13,0.00,19.14,23.40,27.02,14.80,52.52,1017.79,2036.05,751.74,1039.05,1174.05,600.12,604.75,58.91,0000 0000 0000 0000 000000
2017-01-01 06:37:47,0.39,17.14,0.00,19.14,23.40,27.04,14.92,52.60,1017.86,2036.05,750.74,1038.16,1173.07,600.12,604.78,58.96,0000 0000 0000 0000 000000
2017-01-01 06:42:48,0.38,17.16,0.00,19.13,23.40,26.91,14.84,52.45,1017.66,2036.06,749.79,1037.26,1172.03,599.90,604.47,59.01,0000 0000 0000 0000 000000
2017-01-01 06:47:49,0.35,17.18,0.00,19.13,23.40,26.76,14.82,52.42,1017.61,2036.06,748.87,1036.42,1171.00,599.87,604.59,59.07,0000 0000 0000 0000 000000
2017-01-01 06:52:51,0.40,17.20,0.00,19.13,23.39,26.94,14.82,52.44,1017.61,2036.06,747.82,1035.54,1169.97,600.14,604.80,59.12,0000 0000 0000 0000 000000
2017-01-01 06:57:52,0.44,17.22,0.00,19.13,23.38,26.95,14.82,52.51,1017.60,2036.07,746.71,1034.60,1168.93,599.92,604.38,59.17,0000 0000 0000 0000 000000
2017-01-01 07:02:54,0.39,17.24,0.00,19.13,23.37,26.83,14.80,52.40,1017.61,2036.07,745.66,1033.68,1167.85,600.20,604.60,59.22,0000 0000 0000 0000 000000
2017-01-01 07:07:55,0.46,17.26,0.00,19.12,23.37,26.88,14.90,52.64,1017.61,2036.10,744.55,1032.66,1166.73,600.00,604.58,59.27,0000 0000 0000 0000 000000
2017-01-01 07:12:57,0.42,17.29,0.00,19.11,23.37,26.94,14.80,52.52,1017.62,2036.24,743.49,1031.72,1165.64,599.65,604.22,59.32,0000 0000 0000 0000 000000
2017-01-01 07:17:58,0.43,17.31,0.00,19.09,23.37,26.97,14.88,52.58,1017.64,2036.27,742.39,1030.77,1164.51,599.83,604.45,59.37,0000 0000 0000 0000 000000
2017-01-01 07:23:00,0.38,17.33,0.00,19.09,23.37,26.85,14.88,52.61,1017.74,2036.23,741.39,1029.80,1163.40,600.22,604.89,59.42,0000 0000 0000 0000 000000
2017-01-01 07:28:01,0.39,17.35,0.00,19.09,23.36,26.93,14.83,52.60,1017.65,2036.32,740.31,1028.94,1162.43,599.69,604.27,59.47,0000 0000 0000 0000 000000
2017-01-01 07:33:03,0.38,17.37,0.00,19.09,23.35,26.98,14.82,52.69,1017.61,2036.45,739.36,1028.02,1161.44,600.16,604.79,59.52,0000 0000 0000 0000 000000
2017-01-01 07:38:04,0.48,17.39,0.00,19.07,23.35,26.94,14.91,52.65,1017.63,2036.60,738.29,1027.09,1160.43,600.39,604.88,59.57,0000 0000 0000 0000 000000
2017-01-01 07:43:05,0.40,17.41,0.00,19.08,23.35,26.97,14.84,52.60,1017.66,2036.69,737.37,1026.19,1159.34,599.98,604.57,59.62,0000 0000 0000 0000 000000
2017-01-01 07:48:07,0.39,17.43,0.00,19.07,23.35,26.92,14.86,52.52,1017.78,2036.58,736.23,1025.23,1158.20,599.99,604.66,59.67,0000 0000 0000 0000 000000
2017-01-01 07:53:08,0.43,17.45,0.00,19.05,23.35,26.95,14.88,52.56,1017.67,2036.73,735.17,1024.29,1157.15,600.06,604.73,59.72,0000 0000 0000 0000 000000
2017-01-01 07:58:09,0.41,17.48,0.00,19.04,23.35,26.88,14.37,50.81,1017.81,2036.76,734.04,1023.27,1156.02,582.08,586.68,59.77,0000 0000 0000 0000 000009
2017-01-01 08:03:11,0.06,1.17,0.00,19.05,23.36,26.90,13.68,44.08,1017.94,2042.68,3467.98,3016.24,3420.56,554.46,559.10,0.01,0000 0000 0000 0000 000000
2017-01-01 08:08:12,0.08,0.01,0.00,19.03,23.34,26.90,14.76,46.97,1017.87,2043.15,3652.64,3151.93,3575.35,600.05,604.92,0.06,0000 0000 0000 0000 000000
2017-01-01 08:13:13,0.14,0.03,0.00,19.03,23.33,26.79,14.81,46.92,1017.74,2043.06,3643.37,3145.47,3568.01,599.91,604.85,0.11,0000 0000 0000 0000 000000
2017-01-01 08:18:14,0.22,0.05,0.00,19.03,23.32,26.89,14.71,46.94,1017.81,2043.05,3634.20,3139.06,3560.78,599.86,604.76,0.16,0000 0000 0000 0000 000000
2017-01-01 08:23:15,0.31,0.07,0.00,19.04,23.32,26.79,14.71,46.95,1017.81,2043.06,3625.20,3132.90,3553.72,599.81,604.72,0.21,0000 0000 0000 0000 000000
2017-01-01 08:28:17,0.38,0.09,0.00,19.03,23.30,26.79,14.82,46.84,1017.76,2043.04,3616.23,3126.62,3546.52,600.26,604.95,0.26,0000 0000 0000 0000 000000
2017-01-01 08:33:18,0.40,0.11,0.00,19.01,23.29,26.85,14.85,46.88,1017.77,2043.07,3607.43,3120.44,3539.47,599.99,604.97,0.31,0000 0000 0000 0000 000000
2017-01-01 08:38:19,0.39,0.13,0.00,19.01,23.29,26.83,14.66,46.93,1017.64,2043.04,3598.72,3114.23,3532.42,599.70,604.48,0.36,0000 0000 0000 0000 000000
2017-01-01 08:43:21,0.39,0.15,0.00,19.01,23.28,26.81,14.73,46.93,1017.61,2043.06,3590.00,3108.11,3525.40,599.85,604.62,0.41,0000 0000 0000 0000 000000
2017-01-01 08:48:22,0.38,0.17,0.00,18.99,23.27,26.82,14.74,46.73,1017.62,2043.08,3581.41,3101.90,3518.61,600.02,604.89,0.46,0000 0000 0000 0000 000000
2017-01-01 08:53:23,0.39,0.19,0.00,18.99,23.27,26.86,14.72,46.82,1017.60,2043.12,3572.75,3095.75,3511.83,599.77,604.45,0.51,0000 0000 0000 0000 000000
2017-01-01 08:58:24,0.40,0.21,0.00,19.00,23.26,26.75,14.70,46.88,1017.60,2043.14,3563.87,3089.48,3504.86,599.96,604.67,0.56,0000 0000 0000 0000 000000
2017-01-01 09:03:26,0.40,0.23,0.00,19.00,23.25,26.84,14.70,46.82,1017.61,2043.22,3555.38,3083.36,3497.75,599.63,604.42,0.61,0000 0000 0000 0000 000000
2017-01-01 09:08:27,0.38,0.25,0.00,18.99,23.24,26.77,14.83,46.89,1017.62,2043.26,3547.12,3077.36,3490.84,600.27,605.09,0.66,0000 0000 0000 0000 000000
2017-01-01 09:13:28,0.36,0.27,0.00,18.99,23.24,26.69,14.83,46.86,1017.63,2043.12,3538.86,3071.53,3484.06,600.51,605.14,0.71,0000 0000 0000 0000 000000
2017-01-01 09:18:29,0.38,0.28,0.00,18.98,23.24,26.83,14.78,46.92,1017.61,2043.18,3530.64,3065.77,3477.50,600.15,605.06,0.76,0000 0000 0000 0000 000000
2017-01-01 09:23:30,0.38,0.30,0.00,18.97,23.23,26.77,14.73,46.88,1017.60,2043.20,3522.45,3059.90,3470.92,599.66,604.49,0.81,0000 0000 0000 0000 000000
2017-01-01 09:28:31,0.37,0.32,0.00,18.96,23.22,26.65,14.78,46.88,1017.60,2043.16,3514.41,3054.01,3464.21,600.22,605.07,0.86,0000 0000 0000 0000 000000
2017-01-01 09:33:33,0.38,0.34,0.00,18.97,23.22,26.72,14.77,46.91,1017.59,2043.18,3506.30,3048.19,3457.67,600.43,605.24,0.91,0000 0000 0000 0000 000000
2017-01-01 09:38:34,0.38,0.36,0.00,18.96,23.22,26.77,14.77,47.00,1017.59,2043.27,3498.16,3042.42,3451.25,600.23,605.06,0.96,0000 0000 0000 0000 000000
2017-01-01 09:43:35,0.39,0.38,0.00,18.94,23.21,26.77,14.80,47.03,1017.59,2043.41,3490.19,3036.60,3444.62,599.64,604.53,1.01,0000 0000 0000 0000 000000
2017-01-01 09:48:37,0.34,0.40,0.00,18.94,23.20,26.73,14.74,46.88,1017.59,2043.32,3482.43,3030.89,3438.04,600.07,604.95,1.06,0000 0000 0000 0000 000000
2017-01-01 09:53:38,0.37,0.42,0.00,18.94,23.20,26.60,14.79,46.88,1017.57,2043.21,3474.48,3025.28,3431.71,600.43,605.23,1.11,0000 0000 0000 0000 000000
2017-01-01 09:58:39,0.38,0.44,0.00,18.94,23.19,26.75,14.81,46.99,1017.39,2043.30,3466.61,3019.59,3425.32,600.22,605.07,1.16,0000 0000 0000 0000 000000
2017-01-01 10:03:40,0.39,0.46,0.00,18.93,23.19,26.76,14.77,46.95,1017.15,2043.48,3458.70,3013.91,3418.90,599.95,604.62,1.21,0000 0000 0000 0000 000000
2017-01-01 10:08:41,0.36,0.48,0.00,18.94,23.19,26.78,14.79,47.06,1017.23,2043.47,3450.84,3008.27,3412.41,600.15,604.78,1.26,0000 0000 0000 0000 000000
2017-01-01 10:13:43,0.36,0.49,0.00,18.92,23.18,26.76,14.72,47.10,1017.13,2043.36,3443.08,3002.71,3405.95,599.81,604.55,1.31,0000 0000 0000 0000 000000
2017-01-01 10:18:44,0.36,0.51,0.00,18.92,23.17,26.69,14.77,46.99,1017.12,2043.28,3435.38,2997.10,3399.58,599.99,604.65,1.36,0000 0000 0000 0000 000000
2017-01-01 10:23:45,0.39,0.53,0.00,18.90,23.17,26.69,14.79,46.84,1017.11,2043.35,3427.69,2991.53,3393.23,600.11,604.80,1.41,0000 0000 0000 0000 000000
2017-01-01 10:28:46,0.37,0.55,0.00,18.90,23.17,26.70,14.78,46.88,1017.11,2043.43,3420.06,2986.04,3387.13,600.17,604.76,1.46,0000 0000 0000 0000 000000
2017-01-01 10:33:47,0.34,0.57,0.00,18.89,23.16,26.72,14.73,46.92,1017.11,2043.27,3412.39,2980.50,3380.87,600.11,604.85,1.51,0000 0000 0000 0000 000000
2017-01-01 10:38:49,0.37,0.59,0.00,18.89,23.15,26.70,14.71,47.03,1017.11,2043.33,3404.83,2975.03,3374.70,600.06,604.81,1.56,0000 0000 0000 0000 000000
2017-01-01 10:43:50,0.37,0.60,0.00,18.89,23.15,26.58,14.79,46.86,1017.08,2043.31,3397.27,2969.51,3368.48,600.21,604.91,1.61,0000 0000 0000 0000 000000
2017-01-01 10:48:51,0.37,0.62,0.00,18.89,23.14,26.65,14.73,46.98,1017.07,2043.38,3389.84,2964.06,3362.21,600.13,604.83,1.66,0000 0000 0000 0000 000000
2017-01-01 10:53:53,0.35,0.64,0.00,18.89,23.14,26.67,14.74,46.98,1016.96,2043.19,3382.34,2958.53,3355.95,599.82,604.53,1.71,0000 0000 0000 0000 000000
2017-01-01 10:58:54,0.37,0.66,0.00,18.87,23.14,26.65,14.74,47.02,1016.95,2043.26,3374.90,2953.13,3349.91,599.60,604.43,1.76,0000 0000 0000 0000 000000
2017-01-01 11:03:55,0.37,0.68,0.00,18.88,23.12,26.58,14.72,46.92,1016.74,2043.38,3367.62,2947.82,3343.79,600.04,604.56,1.81,0000 0000 0000 0000 000000
2017-01-01 11:08:57,0.36,0.70,0.00,18.87,23.12,26.61,14.72,47.02,1016.69,2043.41,3360.11,2942.52,3337.72,599.92,604.43,1.86,0000 0000 0000 0000 000000
2017-01-01 11:13:58,0.36,0.72,0.00,18.87,23.12,26.68,14.83,47.03,1016.66,2043.31,3352.59,2937.10,3331.60,600.30,604.80,1.91,0000 0000 0000 0000 000000
2017-01-01 11:18:59,0.37,0.74,0.00,18.85,23.12,26.57,14.74,46.98,1016.63,2043.37,3345.24,2931.73,3325.58,600.01,604.47,1.96,0000 0000 0000 0000 000000
2017-01-01 11:24:01,0.38,0.75,0.00,18.85,23.12,26.54,14.75,46.99,1016.64,2043.61,3338.11,2926.49,3319.61,600.07,604.56,2.02,0000 0000 0000 0000 000000
2017-01-01 11:29:02,0.35,0.77,0.00,18.85,23.10,26.59,14.78,47.05,1016.62,2043.56,3330.91,2921.19,3313.57,599.93,604.43,2.07,0000 0000 0000 0000 000000
2017-01-01 11:34:03,0.37,0.79,0.00,18.86,23.09,26.67,14.71,46.97,1016.63,2043.58,3323.76,2915.93,3307.59,599.79,604.29,2.12,0000 0000 0000 0000 000000
2017-01-01 11:39:05,0.36,0.81,0.00,18.84,23.09,26.68,14.74,46.92,1016.62,2043.54,3316.52,2910.66,3301.64,600.04,604.53,2.17,0000 0000 0000 0000 000000
2017-01-01 11:44:06,0.37,0.83,0.00,18.83,23.09,26.70,14.76,46.98,1016.62,2043.68,3309.45,2905.42,3295.71,600.01,604.50,2.22,0000 0000 0000 0000 000000
2017-01-01 11:49:07,0.33,0.85,0.00,18.84,23.09,26.68,14.77,46.96,1016.62,2043.53,3302.41,2900.25,3289.76,600.09,604.40,2.27,0000 0000 0000 0000 000000
2017-01-01 11:54:09,0.37,0.86,0.00,18.84,23.08,26.68,14.78,47.06,1016.62,2043.43,3295.19,2895.03,3283.91,599.82,604.44,2.32,0000 0000 0000 0000 000000
2017-01-01 11:59:10,0.39,0.88,0.00,18.82,23.07,26.65,14.77,47.12,1016.62,2043.56,3288.04,2889.82,3278.06,600.33,604.85,2.37,0000 0000 0000 0000 000000
2017-01-01 12:04:11,0.35,0.90,0.00,18.81,23.07,26.67,14.73,47.13,1016.62,2043.65,3280.97,2884.71,3272.26,599.85,604.50,2.42,0000 0000 0000 0000 000000
2017-01-01 12:09:12,0.35,0.92,0.00,18.81,23.06,26.53,14.75,47.17,1016.62,2043.72,3273.97,2879.67,3266.48,600.12,604.71,2.47,0000 0000 0000 0000 000000
2017-01-01 12:14:13,0.36,0.94,0.00,18.82,23.05,26.58,14.73,47.21,1016.62,2043.75,3266.96,2874.68,3260.84,599.96,604.48,2.52,0000 0000 0000 0000 000000
2017-01-01 12:19:14,0.36,0.96,0.00,18.79,23.04,26.60,14.86,47.23,1016.61,2043.85,3260.10,2869.57,3255.13,600.24,604.86,2.57,0000 0000 0000 0000 000000
2017-01-01 12:24:16,0.36,0.97,0.00,18.79,23.04,26.55,14.81,47.11,1016.61,2043.82,3253.24,2864.48,3249.30,600.24,604.87,2.62,0000 0000 0000 0000 000000
2017-01-01 12:29:17,0.36,0.99,0.00,18.79,23.04,26.63,14.79,47.27,1016.62,2043.93,3246.41,2859.47,3243.56,599.91,604.49,2.67,0000 0000 0000 0000 000000
2017-01-01 12:34:18,0.35,1.01,0.00,18.79,23.03,26.56,14.77,47.19,1016.62,2043.88,3239.46,2854.37,3237.81,600.02,604.65,2.72,0000 0000 0000 0000 000000
2017-01-01 12:39:19,0.36,1.03,0.00,18.76,23.03,26.60,14.77,47.20,1016.50,2043.93,3232.61,2849.37,3232.09,599.86,604.40,2.77,0000 0000 0000 0000 000000
2017-01-01 12:44:21,0.36,1.05,0.00,18.76,23.02,26.62,14.85,47.26,1016.28,2043.93,3225.68,2844.31,3226.43,600.11,604.65,2.82,0000 0000 0000 0000 000000
2017-01-01 12:49:22,0.37,1.07,0.00,18.77,23.02,26.64,14.74,47.17,1016.15,2043.95,3218.73,2839.24,3220.67,599.91,604.27,2.87,0000 0000 0000 0000 000000
2017-01-01 12:54:23,0.37,1.08,0.00,18.78,23.02,26.60,14.79,47.30,1016.13,2043.93,3211.55,2834.06,3214.86,600.28,604.67,2.92,0000 0000 0000 0000 000000